Regional Weather Roundup
Issued by NWS

Home | Current Version | Previous Version | Text Only | Print | Product List | Glossary Off
Versions: 1 2 3 4 5 6 7 8 9 10 11 12 13 14 15 16 17 18 19 20 21 22 23 24 25 26 27 28 29 30 31 32 33 34 35 36 37 38 39 40 41 42 43 44 45 46 47 48 49 50

000
ASUS43 KBIS 020510
RWRND

NORTH DAKOTA REGIONAL WEATHER ROUNDUP
NATIONAL WEATHER SERVICE BISMARCK ND
1200 AM CDT MON MAY 02 2016

NOTE: "FAIR" INDICATES FEW OR NO CLOUDS BELOW 12,000 FEET WITH NO
SIGNIFICANT WEATHER AND/OR OBSTRUCTIONS TO VISIBILITY.


NDZ001>003-009>011-017-020600-
NORTHWEST NORTH DAKOTA

CITY           SKY/WX    TMP DP  RH WIND       PRES   REMARKS
WILLISTON      PTCLDY    47  34  60 SW7       30.11F
MINOT          CLOUDY    58  27  30 S8        30.08F
MINOT AFB      CLOUDY    52  30  43 S9        30.07F HAZE
$$

NDZ018>021-031>035-040>046-020600-
SOUTHWEST NORTH DAKOTA

CITY           SKY/WX    TMP DP  RH WIND       PRES   REMARKS
BISMARCK       CLEAR     45  33  63 CALM      30.16R
DICKINSON      CLEAR     43  28  55 W3        30.15S
GARRISON         N/A     42  29  59 S5        30.12F
HETTINGER ARPT CLEAR     36  30  79 W5        30.18F
$$

NDZ004>008-012>016-024-026-027-054-020600-
NORTHEAST NORTH DAKOTA

CITY           SKY/WX    TMP DP  RH WIND       PRES   REMARKS
GRAND FORKS    MOCLDY    44  32  62 S3        30.11F
GRND FRKS AFB  MOCLDY    43  32  65 SW5       30.11F
DEVILS LAKE    PTCLDY    50  35  56 S7        30.10F
$$

NDZ022-023-025-028>030-036>039-047>053-020600-
SOUTHEAST NORTH DAKOTA

CITY           SKY/WX    TMP DP  RH WIND       PRES   REMARKS
FARGO          CLEAR     45  26  47 E5        30.12F
JAMESTOWN      CLEAR     49  32  52 CALM      30.13S
$$





USA.gov is the U.S. government's official web portal to all federal, state and local government web resources and services.